CAPE
5 4 3 2 3 0 0 0 0 0 0 0 1 1 1 0 0 0 0 0 0 0 0 0 0 0 0 0 0 0 0 0 0 0 0 0 0 0 0 0 0 0 0 0 0
2 2 2 2 1 4 1 0 0 0 0 0 0 1 1 0 0 0 0 0 0 0 0 0 0 0 0 0 0 0 0 0 0 0 0 0 0 0 0 0 0 0 0 0 0
1 1 0 0 2 1 2 2 0 2 2 1 1 1 1 0 0 0 0 0 0 0 0 0 0 0 0 0 0 0 0 0 0 0 0 0 0 0 0 0 0 0 0 0 0
3 1 1 2 0 0 0 1 1 0 0 1 0 0 0 0 0 0 0 0 0 0 0 0 0 0 0 0 0 0 0 0 0 0 0 0 0 0 0 0 0 0 0 0 0
1 1 1 1 0 0 0 0 0 0 0 0 0 0 0 0 0 0 0 0 0 0 0 0 0 0 0 0 0 0 0 0 0 0 0 0 0 0 0 0 0 0 0 0 0
3 1 0 1 1 0 0 0 0 1 0 0 0 0 0 0 0 0 0 0 0 0 0 0 0 0 0 0 0 0 0 0 0 0 0 0 0 0 0 0 0 0 0 0 0
1 2 2 1 0 0 0 0 0 0 0 0 0 0 0 0 0 0 0 0 0 0 0 0 0 0 0 0 0 0 0 0 0 0 0 0 0 0 0 0 0 0 0 0 0
0 0 0 2 1 0 0 0 0 0 0 0 0 0 0 0 0 0 0 0 0 0 0 0 0 0 0 0 0 0 0 0 0 0 0 0 0 0 0 0 0 0 0 0 0
0 0 0 0 0 0 0 0 0 0 0 0 0 0 0 0 0 0 0 0 0 0 0 0 0 0 0 0 0 0 0 0 0 0 0 0 0 0 0 0 0 0 0 0 0
0 0 0 0 0 0 0 0 0 0 0 0 0 0 0 0 0 0 0 0 0 0 0 0 0 0 0 0 0 0 0 0 0 0 0 0 0 0 0 0 0 0 0 0 0
0 0 0 0 0 0 0 0 0 0 0 0 0 0 0 0 0 0 0 0 0 0 0 0 0 0 0 0 0 0 0 0 0 0 0 0 0 0 0 0 0 0 0 0 0
0 0 0 0 0 0 0 0 0 0 0 0 0 0 0 0 0 0 0 0 0 0 0 0 0 0 0 0 0 0 0 0 0 0 0 0 0 0 0 0 0 0 0 0 0
0 0 0 0 0 0 0 0 0 0 0 0 0 0 0 0 0 0 0 0 0 0 0 0 0 0 0 0 0 0 0 0 0 0 0 0 0 0 0 0 0 0 0 0 0
0 0 0 0 0 0 0 0 0 0 0 0 0 0 0 0 0 0 0 0 0 0 0 0 0 0 0 0 0 0 0 0 0 0 0 0 0 0 0 0 0 0 0 0 0
0 0 0 0 0 0 0 0 0 0 0 0 0 0 0 0 0 0 0 0 0 0 0 0 0 0 0 0 0 0 0 0 0 0 0 0 0 0 0 0 0 0 0 0 0
0 0 0 0 0 0 0 0 0 0 0 0 0 0 0 0 0 0 0 0 0 0 0 0 0 0 0 0 0 0 0 0 0 0 0 0 0 0 0 0 0 0 0 0 0
0 0 0 0 0 0 0 0 0 0 0 0 0 0 0 0 0 0 0 0 0 0 0 0 0 0 0 0 0 0 0 0 0 0 0 0 0 0 0 0 0 0 0 0 0
0 0 0 0 0 0 0 0 0 0 0 0 0 0 0 0 0 0 0 0 0 0 0 0 0 0 0 0 0 0 0 0 0 0 0 0 0 0 0 0 0 0 0 0 0
0 0 0 0 0 0 0 0 0 0 0 0 0 0 0 0 0 0 0 0 0 0 0 0 0 0 0 0 0 0 0 0 0 0 0 0 0 0 0 0 0 0 0 0 0
0 0 0 0 0 0 0 0 0 0 0 0 0 0 0 0 0 0 0 0 0 0 0 0 0 0 0 0 0 0 0 0 0 0 0 0 0 0 0 0 0 0 0 0 0
0 1 0 0 0 0 0 0 0 0 0 0 0 0 0 0 0 0 0 0 0 0 0 0 0 0 0 0 0 0 0 0 0 0 0 0 0 0 0 0 0 0 0 0 0
0 0 0 0 5 0 0 0 0 0 0 0 0 0 0 0 0 0 0 0 0 0 0 0 0 0 0 0 0 0 0 0 0 0 0 0 0 0 0 0 0 0 0 0 0
0 0 0 0 0 0 0 0 0 0 0 0 0 0 0 0 0 0 0 0 0 0 0 0 0 0 0 0 0 0 0 0 0 0 0 0 0 0 0 0 0 0 0 0 0
0 0 0 0 0 0 0 0 0 0 0 0 0 0 0 0 0 0 0 0 0 0 0 0 0 0 0 0 1 0 0 0 0 0 0 0 0 0 0 0 0 36 78 17 1
0 0 0 0 0 0 0 0 0 0 0 0 0 0 1 0 0 0 0 0 0 0 0 0 0 0 1 0 0 0 0 0 0 0 0 0 0 0 0 0 18 18 1 3 2
0 0 0 0 0 0 0 0 0 2 0 0 1 0 1 3 3 2 0 0 0 0 0 0 0 0 0 0 0 0 0 0 0 0 0 0 0 0 0 0 0 0 0 0 0
0 0 0 0 0 0 0 0 0 0 0 3 0 0 1 0 0 0 0 0 0 0 0 0 0 0 0 0 0 0 0 0 0 1 0 0 0 0 0 0 0 0 0 0 0
CIN
-0 -0 -0 -0 -0 -0 -0 -0 -0 -0 -0 -0 -0 -0 -0 -0 -0 -0 -0 -0 -0 -0 -0 -0 -0 -0 -0 -0 -0 -0 -0 -0 -0 -0 -0 -0 -0 -0 -0 -0 -0 -0 -0 -0 -0
-0 -0 -0 -0 -0 -0 -0 -0 -0 -0 -0 -0 -0 -0 -0 -0 -0 -0 -0 -0 -0 -0 -0 -0 -0 -0 -0 -0 -0 -0 -0 -0 -0 -0 -0 -0 -0 -0 -0 -0 -0 -0 -0 -0 -0
-0 -0 -0 -0 -0 -0 -0 -0 -0 -0 -0 -0 -0 -0 -0 -0 -0 -0 -0 -0 -0 -0 -0 -0 -0 -0 -0 -0 -0 -0 -0 -0 -0 -0 -0 -0 -0 -0 -0 -0 -0 -0 -0 -0 -0
-0 -0 -0 -0 -0 -0 -0 -0 -0 -0 -0 -0 -0 -0 -0 -0 -0 -0 -0 -0 -0 -0 -0 -0 -0 -0 -0 -0 -0 -0 -0 -0 -0 -0 -0 -0 -0 -0 -0 -0 -0 -0 -0 -0 -0
-0 -0 -0 -0 -0 -0 -0 -0 -0 -0 -0 -0 -0 -0 -0 -0 -0 -0 -0 -0 -0 -0 -0 -0 -0 -0 -0 -0 -0 -0 -0 -0 -0 -0 -0 -0 -0 -0 -0 -0 -0 -0 -0 -0 -0
-0 -0 -0 -0 -0 -0 -0 -0 -0 -0 -0 -0 -0 -0 -0 -0 -0 -0 -0 -0 -0 -0 -0 -0 -0 -0 -0 -0 -0 -0 -0 -0 -0 -0 -0 -0 -0 -0 -0 -0 -0 -0 -0 -0 -0
-0 -0 -0 -0 -0 -0 -0 -0 -0 -0 -0 -0 -0 -0 -0 -0 -0 -0 -0 -0 -0 -0 -0 -0 -0 -0 -0 -0 -0 -0 -0 -0 -0 -0 -0 -0 -0 -0 -0 -0 -0 -0 -0 -0 -0
-0 -0 -0 -0 -0 -0 -0 -0 -0 -0 -0 -0 -0 -0 -0 -0 -0 -0 -0 -0 -0 -0 -0 -0 -0 -0 -0 -0 -0 -0 -0 -0 -0 -0 -0 -0 -0 -0 -0 -0 -0 -0 -0 -0 -0
-0 -0 -0 -0 -0 -0 -0 -0 -0 -0 -0 -0 -0 -0 -0 -0 -0 -0 -0 -0 -0 -0 -0 -0 -0 -0 -0 -0 -0 -0 -0 -0 -0 -0 -0 -0 -0 -0 -0 -0 -0 -0 -0 -0 -0
-0 -0 -0 -0 -0 -0 -0 -0 -0 -0 -0 -0 -0 -0 -0 -0 -0 -0 -0 -0 -0 -0 -0 -0 -0 -0 -0 -0 -0 -0 -0 -0 -0 -0 -0 -0 -0 -0 -0 -0 -0 -0 -0 -0 -0
-0 -0 -0 -0 -0 -0 -0 -0 -0 -0 -0 -0 -0 -0 -0 -0 -0 -0 -0 -0 -0 -0 -0 -0 -0 -0 -0 -0 -0 -0 -0 -0 -0 -0 -0 -0 -0 -0 -0 -0 -0 -0 -0 -0 -0
-0 -0 -0 -0 -0 -0 -0 -0 -0 -0 -0 -0 -0 -0 -0 -0 -0 -0 -0 -0 -0 -0 -0 -0 -0 -0 -0 -0 -0 -0 -0 -0 -0 -0 -0 -0 -0 -0 -0 -0 -0 -0 -0 -0 -0
-0 -0 -0 -0 -0 -0 -0 -0 -0 -0 -0 -0 -0 -0 -0 -0 -0 -0 -0 -0 -0 -0 -0 -0 -0 -0 -0 -0 -0 -0 -0 -0 -0 -0 -0 -0 -0 -0 -0 -0 -0 -0 -0 -0 -0
-0 -0 -0 -0 -0 -0 -0 -0 -0 -0 -0 -0 -0 -0 -0 -0 -0 -0 -0 -0 -0 -0 -0 -0 -0 -0 -0 -0 -0 -0 -0 -0 -0 -0 -0 -0 -0 -0 -0 -0 -0 -0 -0 -0 -0
-0 -0 -0 -0 -0 -0 -0 -0 -0 -0 -0 -0 -0 -0 -0 -0 -0 -0 -0 -0 -0 -0 -0 -0 -0 -0 -0 -0 -0 -0 -0 -0 -0 -0 -0 -0 -0 -0 -0 -0 -0 -0 -0 -0 -0
-0 -0 -0 -0 -0 -0 -0 -0 -0 -0 -0 -0 -0 -0 -0 -0 -0 -0 -0 -0 -0 -0 -0 -0 -0 -0 -0 -0 -0 -0 -0 -0 -0 -0 -0 -0 -0 -0 -0 -0 -0 -0 -0 -0 -0
-0 -0 -0 -0 -0 -0 -0 -0 -0 -0 -0 -0 -0 -0 -0 -0 -0 -0 -0 -0 -0 -0 -0 -0 -0 -0 -0 -0 -0 -0 -0 -0 -0 -0 -0 -0 -0 -0 -0 -0 -0 -0 -0 -0 -0
-0 -0 -0 -0 -0 -0 -0 -0 -0 -0 -0 -0 -0 -0 -0 -0 -0 -0 -0 -0 -0 -0 -0 -0 -0 -0 -0 -0 -0 -0 -0 -0 -0 -0 -0 -0 -0 -0 -0 -0 -0 -0 -0 -0 -0
-0 -0 -0 -0 -0 -0 -0 -0 -0 -0 -0 -0 -0 -0 -0 -0 -0 -0 -0 -0 -0 -0 -0 -0 -0 -0 -0 -0 -0 -0 -0 -0 -0 -0 -0 -0 -0 -0 -0 -0 -0 -0 -0 -0 -0
-0 -0 -0 -0 -0 -0 -0 -0 -0 -0 -0 -0 -0 -0 -0 -0 -0 -0 -0 -0 -0 -0 -0 -0 -0 -0 -0 -0 -0 -0 -0 -0 -0 -0 -0 -0 -0 -0 -0 -0 -0 -0 -0 -0 -0
-0 -1 -0 -0 -0 -0 -0 -0 -0 -0 -0 -0 -0 -0 -0 -0 -0 -0 -0 -0 -0 -0 -0 -0 -0 -0 -0 -0 -0 -0 -0 -0 -0 -0 -0 -0 -0 -0 -0 -0 -0 -0 -0 -0 -0
-0 -0 -0 -0 -6 -0 -0 -0 -0 -0 -0 -0 -0 -0 -0 -0 -0 -0 -0 -0 -0 -0 -0 -0 -0 -0 -0 -0 -0 -0 -0 -0 -0 -0 -0 -0 -0 -0 -0 -0 -0 -0 -0 -0 -0
-0 -0 -0 -0 -0 -0 -0 -0 -0 -0 -0 -0 -0 -0 -0 -0 -0 -0 -0 -0 -0 -0 -0 -0 -0 -0 -0 -0 -0 -0 -0 -0 -0 -0 -0 -0 -0 -0 -0 -0 -0 -0 -0 -0 -0
-0 -0 -0 -0 -0 -0 -0 -0 -0 -0 -0 -0 -0 -0 -0 -0 -0 -0 -0 -0 -0 -0 -0 -0 -0 -0 -0 -0 -3 -0 -0 -0 -0 -1 -0 -0 -0 -0 -0 -0 -0 -87 -83 -81 -27
-0 -0 -0 -0 -0 -0 -0 -0 -0 -0 -0 -0 -0 -0 -0 -0 -0 -0 -0 -0 -0 -0 -0 -0 -0 -0 -0 -0 -0 -0 -0 -0 -0 -0 -0 -0 -0 -0 -0 -0 -52 -74 -19 -76 -64
-0 -0 -0 -0 -0 -0 -0 -0 -0 -0 -0 -0 -0 -1 -0 -0 -0 -0 -0 -0 -0 -0 -0 -0 -0 -0 -0 -0 -0 -0 -0 -0 -0 -0 -0 -0 -0 -0 -0 -0 -0 -0 -0 -0 -0
-0 -0 -1 -0 -0 -0 -0 -0 -0 -0 -0 -0 -2 -0 -0 -0 -0 -0 -0 -0 -0 -0 -0 -0 -0 -0 -0 -0 -0 -0 -0 -0 -0 -4 -1 -0 -0 -0 -0 -0 -0 -0 -0 -0 -0
Wind_Speed
13 16 18 19 20 21 22 22 23 23 24 24 24 24 25 25 26 22 27 20 13 16 16 18 17 16 15 17 15 15 25 29 27 27 28 25 29 25 27 30 31 25 25 20 10
9 11 14 17 19 21 21 22 23 23 23 23 24 24 24 25 25 27 24 12 14 15 16 17 15 13 15 17 17 20 26 27 22 23 29 30 30 32 31 33 30 25 25 23 14
10 10 11 13 16 19 20 21 22 22 23 23 23 23 23 23 22 19 18 5 10 11 15 14 14 15 17 17 18 20 29 26 28 29 32 34 33 29 32 36 31 35 29 22 21
12 12 13 14 15 16 17 19 20 21 22 22 23 22 23 18 16 16 14 5 9 9 11 11 13 15 17 18 19 26 26 27 31 32 32 35 32 31 31 35 36 31 30 21 19
15 16 16 16 16 16 17 17 18 19 20 21 21 21 18 18 18 16 9 8 9 9 10 12 15 17 19 19 22 25 27 29 31 32 33 36 36 37 36 31 28 27 27 23 21
9 13 16 18 19 19 18 18 19 19 20 20 20 19 17 17 17 15 8 9 9 9 11 12 15 18 20 20 21 23 28 29 27 29 27 31 34 28 28 25 27 30 30 26 21
16 13 13 14 15 18 19 20 21 21 21 20 18 17 18 15 15 12 6 11 10 9 13 14 16 18 18 22 21 25 31 32 27 26 28 30 40 39 33 27 34 36 36 35 33
20 19 18 16 15 15 15 16 17 18 20 18 15 17 20 17 16 13 10 16 13 13 16 19 18 19 19 21 25 28 27 32 26 26 29 27 42 35 35 35 40 38 36 35 34
27 24 21 19 18 17 17 18 18 17 9 13 14 15 22 20 10 7 5 8 11 14 16 20 18 18 20 23 27 24 30 31 31 21 26 25 37 26 30 32 38 41 39 32 31
30 29 26 23 21 20 20 21 18 17 15 13 18 19 8 10 11 5 3 9 9 20 17 12 16 16 17 15 19 18 19 23 23 22 27 31 38 35 34 33 36 37 38 31 31
33 30 28 26 25 24 23 17 21 18 13 13 15 16 20 18 13 8 4 3 4 11 14 15 17 13 10 10 15 23 23 25 28 28 26 23 39 41 36 36 36 36 35 32 31
34 33 30 29 27 25 19 20 22 21 28 1 9 4 8 16 17 17 5 7 8 9 13 16 12 12 16 18 19 20 22 28 32 28 23 35 42 39 31 28 31 34 34 34 31
35 35 34 31 28 18 19 21 24 24 24 25 14 13 12 6 7 7 3 5 10 9 10 11 16 16 19 23 25 24 24 27 25 28 27 33 38 31 28 28 30 34 34 36 38
35 35 36 33 18 18 19 19 28 18 23 18 15 14 6 9 16 5 4 8 12 9 10 17 16 17 23 22 23 31 24 27 29 31 31 29 42 32 29 31 30 29 36 38 37
39 37 35 26 20 17 17 25 25 17 23 14 13 11 8 7 15 13 5 9 7 8 11 15 15 15 20 25 23 28 30 30 32 34 36 33 37 34 26 32 36 33 32 32 33
42 40 37 22 13 9 21 25 16 20 20 17 14 13 11 7 15 15 11 12 15 16 19 17 22 22 22 24 25 27 33 35 33 34 34 36 35 39 35 33 36 35 35 35 33
44 42 31 16 17 13 18 17 18 18 20 18 20 18 16 16 16 18 19 15 16 22 22 24 27 27 27 32 31 28 30 34 36 35 37 36 38 36 34 34 36 38 42 35 33
44 40 19 15 16 16 14 15 19 19 20 23 24 24 20 19 19 19 20 22 20 22 30 30 33 27 23 22 25 23 24 29 40 40 44 39 35 36 32 37 38 38 37 35 30
41 27 18 18 9 13 13 17 19 21 23 26 25 23 21 23 24 23 21 24 20 22 26 30 30 26 28 21 20 24 26 27 36 38 45 38 39 40 35 33 31 35 36 38 25
32 23 20 14 11 16 17 19 20 21 24 22 23 22 26 29 27 29 27 22 26 21 24 27 38 28 27 28 28 27 27 35 32 40 42 36 36 33 34 37 38 39 38 36 35
24 19 22 15 17 20 20 20 21 24 25 24 25 27 28 30 33 33 25 30 29 27 28 31 31 29 29 29 34 33 33 31 33 31 37 41 35 24 32 36 38 38 37 36 33
21 21 23 18 20 21 22 25 25 29 28 27 26 27 29 35 36 34 31 26 28 29 34 26 30 35 34 30 29 27 27 24 27 29 27 33 37 30 35 30 37 39 40 43 37
24 17 19 16 21 22 25 25 25 29 30 28 28 28 29 33 34 30 28 29 28 29 29 31 28 35 35 26 20 20 21 23 24 27 32 37 36 30 37 42 40 35 38 41 39
23 24 19 21 19 21 27 26 28 30 31 28 30 30 33 34 29 32 32 29 34 32 31 31 26 27 31 29 29 32 31 29 28 34 38 35 43 39 38 35 38 37 36 35 35
25 22 21 22 21 26 24 22 28 28 24 27 26 27 30 33 34 33 30 31 34 35 31 24 28 25 28 33 32 31 31 29 30 29 30 32 29 33 35 35 29 29 33 35 32
24 23 22 21 21 24 22 23 28 26 28 28 25 28 33 32 29 38 37 35 32 26 21 18 28 30 34 31 27 25 24 25 22 22 20 22 27 26 29 30 29 32 34 33 32
22 21 21 21 23 23 22 25 25 33 26 23 28 37 34 28 27 31 34 30 26 24 22 22 26 25 24 21 26 26 20 21 22 20 19 22 22 30 33 36 35 36 38 36 36
Wind_Direction
260 265 269 274 273 275 276 277 278 279 280 279 278 278 279 280 279 292 266 283 301 287 291 292 293 295 298 290 289 292 275 273 275 276 275 280 275 282 291 286 290 284 275 279 279
244 244 253 262 270 275 278 279 281 282 282 283 282 282 284 288 285 266 272 301 291 297 292 291 293 297 292 288 286 277 274 276 284 282 279 282 278 279 285 283 286 294 292 287 271
256 248 241 244 255 265 272 278 282 283 285 285 285 285 288 294 288 290 299 315 305 311 302 302 298 297 290 291 285 283 273 279 281 282 277 279 279 282 282 278 282 284 290 289 279
269 258 251 247 246 248 254 261 268 277 281 282 282 283 285 301 295 299 312 0 317 316 307 307 305 299 293 288 289 282 284 285 282 282 283 278 282 280 282 278 284 288 292 296 277
285 276 266 257 253 251 251 252 255 259 262 263 265 267 286 296 286 287 330 345 322 308 306 307 304 301 293 296 296 288 289 288 288 286 285 283 281 279 280 285 287 291 296 297 284
280 273 271 271 268 263 259 257 260 262 265 267 271 276 298 298 289 291 330 324 317 315 312 314 309 307 298 299 297 299 294 293 295 293 294 288 283 286 284 289 287 289 289 290 286
302 285 266 253 248 252 260 266 271 277 284 288 295 302 298 298 307 311 346 314 312 313 309 311 315 310 311 300 303 301 294 293 296 296 293 294 280 278 286 289 285 285 284 281 280
313 304 294 275 255 239 233 233 237 244 269 313 330 316 293 301 298 304 311 300 299 304 304 302 310 311 309 307 303 299 299 293 298 296 294 290 280 287 289 292 286 289 286 283 279
323 316 305 293 277 263 252 247 241 225 325 22 351 335 231 286 309 318 339 320 313 309 307 302 313 311 310 303 299 303 294 294 296 305 299 290 287 298 297 297 288 290 289 283 280
325 323 318 309 293 282 274 271 339 341 347 360 311 303 302 353 343 4 138 147 321 296 317 312 317 310 311 315 308 315 314 310 307 305 304 293 289 294 297 298 295 294 291 287 283
327 322 319 314 308 307 322 356 340 336 354 340 324 317 296 316 326 352 18 25 338 324 313 316 308 304 305 310 312 309 309 307 305 304 304 303 292 291 297 296 295 296 297 292 285
325 325 317 310 310 319 342 333 330 330 290 308 204 228 197 313 308 300 360 325 310 308 315 311 306 304 311 311 309 309 307 305 302 303 301 300 294 295 302 303 300 298 295 293 292
320 321 319 307 306 345 335 330 332 322 319 301 332 320 297 309 320 322 321 326 320 310 306 305 310 309 307 305 308 307 307 308 307 306 302 304 299 304 304 303 302 298 297 294 291
310 311 316 309 343 337 329 342 318 347 321 324 330 332 350 329 316 293 263 314 311 308 312 314 308 301 300 302 306 300 308 307 306 305 301 304 260 301 305 303 304 304 301 297 293
309 308 306 338 331 332 335 323 325 340 309 332 340 354 358 356 332 330 311 297 299 308 317 317 319 314 306 303 304 302 304 304 304 302 302 299 300 304 304 303 304 306 308 304 300
309 311 315 342 349 354 325 321 341 319 309 320 337 328 331 323 325 332 329 306 307 297 296 294 306 307 305 307 307 310 307 305 305 302 293 300 296 298 298 303 305 304 303 305 301
309 304 322 343 339 352 336 342 320 311 319 320 319 322 311 312 311 315 313 306 291 303 297 294 294 298 303 301 302 304 305 304 301 298 296 305 298 298 306 306 304 304 300 299 301
310 306 341 341 337 332 345 338 314 317 311 320 318 311 311 317 313 314 318 318 327 301 299 302 302 305 310 304 303 302 301 300 302 302 301 303 298 304 311 308 306 306 305 301 297
315 335 340 342 12 349 338 320 320 319 319 313 315 313 311 315 314 314 313 312 318 322 311 310 305 306 305 311 315 310 301 306 302 302 301 301 300 304 309 318 320 320 317 309 295
333 339 345 352 18 343 326 316 317 327 323 324 317 320 311 311 313 315 310 315 315 323 325 314 304 305 301 307 304 302 309 302 304 302 299 302 304 305 311 314 316 315 315 316 310
357 349 343 348 340 331 318 315 318 330 326 319 314 311 312 312 310 310 310 310 312 311 312 310 304 304 306 302 301 302 299 300 302 296 298 301 304 312 315 316 316 316 316 310 306
36 1 358 351 328 326 320 317 318 314 322 319 316 313 310 309 307 305 305 308 319 315 311 313 304 298 300 305 305 303 303 302 300 305 302 303 302 311 314 317 320 313 308 292 297
25 40 39 42 340 331 325 320 321 320 318 317 314 314 315 312 309 310 308 312 319 316 317 315 309 306 308 313 323 317 317 315 310 307 301 303 307 321 317 311 312 311 304 296 287
29 19 25 21 20 359 339 329 319 322 317 320 314 315 313 310 309 306 305 311 312 314 311 313 304 302 303 307 309 305 305 307 306 303 305 302 308 313 315 317 314 310 306 302 296
27 27 28 11 7 351 347 341 331 329 333 329 323 323 318 311 310 306 309 312 310 308 306 309 303 305 304 305 305 304 304 305 303 303 303 311 314 322 326 325 329 322 305 292 296
22 21 20 11 14 2 360 350 336 336 332 325 324 323 318 314 313 307 308 309 311 314 314 309 306 310 306 307 309 311 314 316 317 316 313 318 322 336 332 333 328 315 311 299 293
18 19 18 12 7 6 3 356 347 333 336 333 324 317 317 320 321 315 311 308 306 308 307 307 310 315 316 322 322 319 327 333 333 337 334 327 333 332 323 314 319 318 312 304 299